Regional Weather Roundup
Issued by NWS

Home | Current Version | Previous Version | Graphics & Text | Print | Product List | Glossary On
Versions: 1 2 3 4 5 6 7 8 9 10 11 12 13 14 15 16 17 18 19 20 21 22 23 24 25 26 27 28 29 30 31 32 33 34 35 36 37 38 39 40 41 42 43 44 45 46 47 48 49 50
000
ASUS45 KTFX 292319
RWRMT
MONTANA REGIONAL WEATHER ROUNDUP
NATIONAL WEATHER SERVICE GREAT FALLS MT
500 PM MDT SAT AUG 29 2015

NOTE: "FAIR" INDICATES FEW OR NO CLOUDS BELOW 12000 FEET WITH NO
SIGNIFICANT WEATHER AND/OR OBSTRUCTIONS TO VISIBILITY.

MTZ001>007-043-300000-
WEST OF THE DIVIDE

CITY           SKY/WX    TMP DP  RH WIND       PRES   REMARKS
KALISPELL      CLOUDY    75  47  36 VRB5      29.75R SMOKE
MISSOULA       CLOUDY    78  44  29 NW15G22   29.77R HAZE
BUTTE            N/A     73  51  46 SE16      29.89F
MULLAN PASS    CLOUDY    56  43  61 VRB6G23   29.99R HAZE
DEER LODGE       N/A     79  48  34 SE9       29.86R
EUREKA           N/A     79  45  29 SW21G26   29.76R
HAMILTON         N/A     79  54  41 NE6       29.75F
LIBBY            N/A     73  45  35 SW7       29.81R
PLAINS           N/A     81  44  26 S14       29.79F
RONAN            N/A     81  44  26 W13       29.84R
THOMPSON FALLS   N/A     80  46  30 SW9       29.85S
$$

MTZ008-052>055-300000-
SOUTHWEST MONTANA

CITY           SKY/WX    TMP DP  RH WIND       PRES   REMARKS
BOZEMAN          N/A     87  43  21 S18G29    29.84F
DILLON           N/A     88  37  16 S25G39    29.85F
W YELLOWSTONE  PTSUNNY   75  39  27 W6        30.11F
THREE FORKS      N/A     91  24   9 S24       29.81F
TWIN BRIDGES     N/A     88  41  19 SE30      29.86S
$$

MTZ009-010-012-014-046-048-049-054-300000-
EAST SLOPES AND CENTRAL MONTANA

CITY           SKY/WX    TMP DP  RH WIND       PRES   REMARKS
CUT BANK       PTSUNNY   87  42  20 S17       29.73F
GREAT FALLS      N/A     89  40  17 SW9       29.73F
MALMSTROM AFB    N/A     88  41  19 E6        29.73S
HELENA           N/A     83  46  27 N8G20     29.75R HAZE
CONRAD           N/A     88  47  24 NE3       29.79F
$$

MTZ011-013-016-021-045-047-050-051-300000-
NORTH CENTRAL MONTANA

CITY           SKY/WX    TMP DP  RH WIND       PRES   REMARKS
HAVRE            N/A     92  45  19 CALM      29.69F
LEWISTOWN        N/A     87  42  20 S15       29.83F
N BAR RANCH      N/A     86  37  17 S14G29    29.90F
CHINOOK          N/A     91  46  21 E6        29.69F
FORT BENTON      N/A     90  43  19 NE7       29.69F
$$

MTZ017>020-022>027-061-062-300000-
NORTHEAST MONTANA

CITY           SKY/WX    TMP DP  RH WIND       PRES   REMARKS
GLASGOW        HAZE      91  40  16 E13       29.76F VSB 1/2
JORDAN           N/A     97  38  13 S14       29.78F HX  92
SIDNEY         MOSUNNY   93  54  26 CALM      29.78F HX  91
WOLF POINT     HAZE      92  46  20 E7        29.77F VSB 1/2
MALTA            N/A     93  51  23 CALM      29.72F HX  90
PLENTYWOOD       N/A     88  46  23 SE6       29.80F
POPLAR           N/A     90  46  22 E6        29.78F VSB 1
SCOBEY           N/A     87  47  24 S6        29.81F
$$

MTZ028>42-056>058-300000-
SOUTHCENTRAL AND SOUTHEAST MONTANA

CITY           SKY/WX    TMP DP  RH WIND       PRES   REMARKS
BAKER          MOSUNNY   97  41  14 SW9       29.87F HX  92
BILLINGS       CLOUDY    89  43  20 SW3       29.88S
LIVINGSTON     PTSUNNY   87  41  19 SW20G26   29.88F
MILES CITY     CLOUDY    99  40  13 SW8       29.80F HX  94
EKALAKA          N/A     94  39  14 S1        29.90F HX  90
FORSYTH          N/A     97  41  14 N6        29.79F HX  92
LAUREL           N/A     90  44  20 SW17      29.88F
ROUNDUP          N/A     92  41  17 SE6       29.78F
$$

REGIONAL REPORTS...DAKOTAS

CITY           SKY/WX    TMP DP  RH WIND       PRES   REMARKS
WILLISTON      MOSUNNY   93  47  20 CALM      29.79F HAZE
MINOT          MOSUNNY   91  46  21 S9        29.79F HAZE
DICKINSON      PTSUNNY   97  41  14 SW12      29.83F HX  92
BEACH            N/A     95  37  13 S9        29.84F HX  90
CROSBY           N/A     88  45  22 CALM      29.80F HAZE
BISMARCK       PTSUNNY   91  54  28 SE10      29.84F HAZE
GRAND FORKS    PTSUNNY   78  68  71 S14       29.83F
FARGO          MOSUNNY   83  67  58 S13       29.87F
BUFFALO SD       N/A     93  52  24 SE13      29.84F HX  90
RAPID CITY     SUNNY     91  51  25 S10       29.94F
$$

REGIONAL REPORTS...WYOMING/IDAHO/WASHINGTON

CITY           SKY/WX    TMP DP  RH WIND       PRES   REMARKS
GILLETTE       MOSUNNY   95  34  11 S14G23    29.95F HX  90
SHERIDAN       MOSUNNY  100  32   9 N6        29.88F HX  94
BUFFALO WY     MOSUNNY   96  30   9 SW14      29.97F HX  90
CODY           CLOUDY    88  39  18 N5        29.98F
YELLOWSTONE LA   N/A     67  42  40 CALM      30.25F
IDAHO FALLS    PTSUNNY   91  41  17 S23G29    29.94F
SALMON           N/A     84  45  24 SW23G32   29.76S
BOISE            N/A     84  45  25 N14       29.83R
SPOKANE        PTSUNNY   71  50  47 SW16G24   29.82F
$$

REGIONAL REPORTS...ALBERTA

CITY           SKY/WX    TMP DP  RH WIND       PRES   REMARKS
EDMONTON       SUNNY     77  48  36 SE21      29.51F
CALGARY        PTSUNNY   79  43  27 S23G33    29.56F SMOKE
LETHBRIDGE     PTSUNNY   88  43  20 W24G32    29.64R SMOKE
MEDICINE HAT   CLOUDY    90  45  20 SE15G25   29.62F
WATERTON GATE    N/A     77  41  27 SW17G28     N/A
CARDSTON         N/A     81  45  28 W7          N/A
MILK RIVER       N/A     88  43  20 SW18G29     N/A
$$

REGIONAL REPORTS...SASKATCHEWAN

CITY           SKY/WX    TMP DP  RH WIND       PRES   REMARKS
SWIFT CURRENT  SUNNY     82  48  30 SE8       29.76F HAZE
REGINA         PTSUNNY   79  59  50 NW5       29.77F SMOKE
SASKATOON      PTSUNNY   84  52  32 W6        29.73S
CYPRESS HILLS    N/A     82  37  20 SW9         N/A
VAL MARIE        N/A     90  43  19 S14G20      N/A
ROCKGLEN         N/A     82  54  36 SE5         N/A
ASSINIBOIA       N/A     79  46  31 SE13G20     N/A
$$



USA.gov is the U.S. government's official web portal to all federal, state and local government web resources and services.